EW0105 Weather Reports


Display with metric or nautical units.
time (UTC)temp
F
wind
direction
speed
MPH
gust
MPH
rain 1hr
in
rain 24hr
in
rain mn
in
humidity
%
barometer
mb
20180716004125 79 101 0.0 2.0 0.05 0.32 0.32 85 1012.3
20180716002622 82 107 0.0 0.0 0.00 0.27 0.27 78 1012.3
20180716001121 84 169 0.0 0.0 0.00 0.27 0.27 77 1012.3
20180715235621 84 163 0.0 0.0 0.00 0.27 0.27 77 1012.4
20180715234119 84 87 0.0 0.0 0.00 0.27 0.27 77 1012.4
20180715232619 84 159 1.0 5.0 0.00 0.27 0.27 77 1012.4
20180715231118 84 188 0.0 7.0 0.00 0.27 0.27 77 1012.4
20180715225618 84 101 0.0 0.0 0.00 0.27 0.27 76 1012.4
20180715224119 85 184 0.0 0.0 0.00 0.27 0.27 75 1012.5
20180715222617 85 176 0.0 8.0 0.00 0.27 0.27 74 1012.6
20180715221115 85 176 5.0 8.0 0.00 0.27 0.27 75 1012.4
20180715215614 85 184 4.0 8.0 0.00 0.27 0.27 75 1012.8
20180715214109 85 179 3.0 8.0 0.00 0.27 0.27 78 1012.9
20180715212606 84 178 1.0 6.0 0.00 0.27 0.27 77 1013.0
20180715211106 83 180 1.0 6.0 0.00 0.27 0.27 78 1013.3
20180715205606 83 180 0.0 6.0 0.00 0.28 0.27 79 1013.5
20180715204103 83 177 0.0 7.0 0.00 0.28 0.27 78 1013.7
20180715202601 83 189 0.0 0.0 0.00 0.28 0.27 77 1013.8
20180715201059 83 181 2.0 8.0 0.00 0.28 0.27 78 1014.0
20180715195557 83 186 0.0 1.0 0.00 0.66 0.27 75 1014.2
20180715194100 84 192 0.0 9.0 0.00 0.66 0.27 74 1014.3
20180715192557 83 205 0.0 0.0 0.00 0.66 0.27 77 1014.3
20180715191053 82 188 0.0 0.0 0.00 0.66 0.27 77 1014.3
20180715185553 83 190 0.0 0.0 0.00 0.66 0.27 76 1014.4
20180715184049 83 194 0.0 0.0 0.00 0.66 0.27 78 1014.3
20180715182547 82 186 0.0 0.0 0.00 0.66 0.27 78 1014.3
20180715181049 82 190 0.0 9.0 0.00 0.66 0.27 80 1014.4
20180715175544 81 181 0.0 0.0 0.00 0.66 0.27 79 1014.8
20180715174039 80 194 0.0 0.0 0.00 0.66 0.27 80 1015.0
20180715172538 80 198 0.0 0.0 0.00 0.66 0.27 80 1015.0
20180715171038 80 196 0.0 0.0 0.00 0.66 0.27 82 1015.0
20180715165538 79 187 0.0 0.0 0.00 0.66 0.27 83 1015.0
20180715164033 79 198 0.0 5.0 0.00 0.66 0.27 84 1015.1
20180715162535 79 191 0.0 0.0 0.00 0.66 0.27 85 1015.1
20180715161030 79 178 0.0 7.0 0.01 0.66 0.27 87 1014.9
20180715155529 77 210 0.0 11.0 0.01 0.66 0.27 90 1015.0
20180715154025 76 198 5.0 10.0 0.01 0.66 0.27 94 1015.0
20180715152523 74 198 0.0 2.0 0.04 0.66 0.27 95 1015.0
20180715151019 73 182 0.0 7.0 0.06 0.65 0.26 95 1015.1
20180715145516 73 186 0.0 6.0 0.11 0.65 0.26 96 1015.0
20180715144021 72 186 2.0 5.0 0.15 0.65 0.26 96 1015.0
20180715142518 71 199 1.0 5.0 0.17 0.62 0.23 96 1015.1
20180715141017 71 202 0.0 4.0 0.16 0.59 0.20 96 1015.4
20180715135514 71 189 2.0 5.0 0.14 0.54 0.15 95 1015.4
20180715134013 72 192 0.0 5.0 0.11 0.50 0.11 95 1015.4
20180715132512 72 216 0.0 5.0 0.06 0.45 0.06 95 1015.5
20180715131013 72 182 0.0 4.0 0.03 0.42 0.03 94 1015.5
20180715125510 72 190 0.0 0.0 0.01 0.40 0.01 94 1015.7
20180715124012 72 191 0.0 1.0 0.00 0.39 0.00 95 1015.6
20180715122509 72 178 1.0 4.0 0.00 0.39 0.00 94 1015.6
20180715121009 72 178 0.0 0.0 0.00 0.39 0.00 95 1015.5
20180715115507 72 178 0.0 2.0 0.00 0.39 0.00 95 1015.4
20180715114011 71 175 0.0 0.0 0.00 0.39 0.00 95 1015.5
20180715112507 71 182 0.0 4.0 0.00 0.39 0.00 95 1015.5
20180715111005 71 171 0.0 0.0 0.00 0.39 0.00 95 1015.2
20180715105509 71 171 0.0 0.0 0.00 0.39 0.00 95 1015.0
20180715104006 71 171 0.0 1.0 0.00 0.39 0.00 95 1015.0
20180715102504 71 171 0.0 0.0 0.00 0.39 0.00 95 1014.9
20180715101004 71 171 0.0 0.0 0.00 0.39 0.00 95 1015.0
20180715095507 71 171 0.0 0.0 0.00 0.39 0.00 95 1014.9
20180715094003 71 171 0.0 0.0 0.00 0.39 0.00 95 1015.1
20180715092506 71 171 0.0 4.0 0.00 0.39 0.00 95 1015.1
20180715091002 71 171 0.0 0.0 0.00 0.39 0.00 95 1014.9
20180715085501 71 171 0.0 0.0 0.00 0.39 0.00 95 1014.8
20180715084000 71 171 0.0 0.0 0.00 0.39 0.00 95 1014.8
20180715082500 71 171 0.0 0.0 0.00 0.39 0.00 95 1015.0
20180715081001 71 171 0.0 0.0 0.00 0.39 0.00 95 1014.8
20180715075459 71 171 0.0 2.0 0.00 0.39 0.00 95 1014.5
20180715073956 71 173 0.0 1.0 0.00 0.39 0.00 95 1015.0
20180715072457 71 211 0.0 0.0 0.00 0.39 0.00 95 1015.1
20180715070954 71 211 0.0 0.0 0.00 0.39 0.00 95 1015.3
20180715065452 71 211 0.0 4.0 0.00 0.39 0.00 94 1015.1
20180715063954 71 212 0.0 2.0 0.00 0.39 0.00 94 1015.5
20180715062447 71 205 0.0 2.0 0.00 0.39 0.00 94 1015.3
20180715060949 72 176 0.0 2.0 0.00 0.39 0.00 94 1015.4
20180715055447 72 176 0.0 1.0 0.00 0.39 0.00 94 1015.4
20180715053943 72 175 0.0 0.0 0.00 0.39 0.00 94 1015.5
20180715052443 72 175 0.0 2.0 0.00 0.39 0.00 94 1015.2
20180715050942 72 176 0.0 6.0 0.00 0.39 0.00 94 1015.5
20180715045439 72 175 0.0 5.0 0.00 0.39 0.39 93 1015.5
20180715043939 72 169 0.0 0.0 0.00 0.39 0.39 93 1015.4
20180715042439 72 169 0.0 0.0 0.00 0.39 0.39 93 1014.9
20180715040938 72 169 0.0 2.0 0.00 0.39 0.39 93 1014.7
20180715035439 72 170 1.0 3.0 0.00 0.39 0.39 93 1014.6
20180715033937 72 175 1.0 5.0 0.00 0.39 0.39 93 1014.8
20180715032437 73 177 1.0 3.0 0.00 0.39 0.39 92 1014.8
20180715030935 73 176 0.0 1.0 0.00 0.39 0.39 92 1015.0
20180715025435 73 176 0.0 2.0 0.00 0.39 0.39 91 1015.1
20180715023934 73 293 0.0 0.0 0.00 0.39 0.39 91 1015.2
20180715022433 73 293 0.0 0.0 0.00 0.39 0.39 91 1015.3
20180715020935 73 293 0.0 0.0 0.00 0.39 0.39 91 1015.5
20180715015436 73 293 0.0 2.0 0.00 0.39 0.39 91 1015.6
20180715013931 73 294 0.0 0.0 0.00 0.39 0.39 90 1015.8
20180715012431 74 286 0.0 0.0 0.00 0.39 0.39 90 1016.2
20180715010930 74 266 0.0 0.0 0.00 0.39 0.39 90 1016.3